Theta_e
345 344 348 349 351 348 351 352 355 353 352 350 345 340 336 336 338 338 338 339 339 337 335 336 334 337 336 336 336 335 336 333 335
346 344 346 349 351 350 352 353 354 352 352 351 346 340 341 342 341 340 339 339 338 336 337 337 336 336 335 335 334 334 333 334 333
340 347 347 347 349 352 354 353 353 350 350 351 344 342 343 343 339 337 339 339 338 337 336 336 337 336 336 335 335 335 335 334 334
336 339 347 351 350 353 355 352 352 347 348 350 345 340 341 339 335 335 337 337 336 335 336 336 337 336 336 335 335 335 334 333 334
338 341 345 353 351 355 355 352 350 346 344 346 344 342 340 339 337 336 336 336 336 335 335 334 334 334 334 334 335 335 333 334 334
346 348 352 356 353 353 354 353 350 345 342 342 342 341 340 338 337 337 337 337 337 336 335 334 335 335 334 334 334 334 334 334 333
341 350 350 356 355 354 353 353 349 346 341 339 339 340 339 338 337 337 338 337 338 336 335 335 335 334 334 333 334 333 334 333 333
338 345 350 358 355 355 355 353 349 347 341 338 337 336 336 336 336 337 338 338 337 336 335 336 335 333 333 334 334 333 332 332 330
339 340 341 347 356 354 359 354 350 345 341 340 335 338 336 336 336 337 338 338 338 337 336 335 333 333 334 332 333 331 330 328 328
339 341 342 344 352 354 359 353 349 345 342 338 336 337 337 337 337 337 338 337 337 336 335 333 333 333 334 333 332 332 330 327 326
335 340 341 344 347 350 355 350 347 346 342 336 339 340 340 339 338 338 339 338 336 335 335 334 333 333 333 331 331 330 329 327 327
337 340 345 346 339 344 351 349 347 345 341 340 341 341 341 341 339 339 339 339 338 336 335 333 334 333 332 331 329 329 330 327 327
339 339 341 343 342 346 351 348 347 344 340 341 341 340 341 341 340 340 339 339 337 336 334 333 325 332 333 332 331 329 326 325 320
339 340 343 344 345 348 350 347 345 340 339 341 341 340 341 340 340 339 337 337 336 336 334 328 331 333 331 331 328 326 322 325 324
343 344 344 345 349 350 348 344 343 340 341 340 340 340 339 339 339 338 337 335 335 332 332 333 333 331 330 326 327 327 324 325 325
345 345 344 345 347 350 346 342 337 343 342 344 344 343 342 340 339 337 337 335 333 335 335 334 332 330 329 327 326 322 324 322 321
346 342 346 345 347 349 346 346 345 347 347 345 344 345 345 342 341 340 338 335 336 334 333 330 329 327 327 326 324 324 320 317 318
343 348 344 342 343 341 338 336 332 336 341 342 345 345 344 341 340 338 336 332 330 330 324 323 324 322 322 321 321 315 316 316 318
346 346 342 339 339 338 333 330 331 332 325 338 340 339 338 337 335 332 333 330 321 322 322 321 320 319 318 316 316 316 315 316 317
341 341 337 332 329 328 328 329 336 338 337 337 336 335 334 331 328 328 331 330 331 327 320 320 320 318 315 313 312 312 313 314 316
Wind_Speed
21 21 18 18 14 25 27 25 23 23 22 20 17 14 10 5 3 4 4 2 0 3 7 7 9 7 6 10 11 12 11 15 13
17 14 19 21 19 27 27 26 26 23 23 20 19 17 13 8 7 5 5 2 2 5 4 5 5 6 9 13 15 14 13 14 16
6 20 20 21 19 28 29 27 26 25 23 21 20 18 15 13 10 7 7 5 5 6 8 8 9 10 11 13 16 16 15 16 16
4 9 10 15 14 27 30 29 28 26 23 21 20 18 16 10 7 8 9 7 7 8 9 9 11 12 13 16 18 18 15 15 16
6 2 11 15 14 25 28 27 28 27 25 23 20 18 15 12 9 8 8 8 8 8 9 10 11 13 15 17 18 18 16 15 15
5 10 6 12 13 14 25 28 28 29 27 25 22 19 17 13 11 11 10 9 8 9 10 12 13 14 15 17 17 18 19 18 16
6 8 10 13 13 14 27 30 29 28 28 25 24 25 20 17 16 13 11 11 10 10 12 13 14 15 16 18 19 19 23 19 16
5 5 9 12 15 13 24 27 29 28 25 23 21 21 15 14 14 13 13 13 11 12 14 14 14 16 17 17 17 21 6 7 12
6 5 7 8 15 15 19 27 27 27 24 21 16 18 19 15 15 16 16 14 13 14 13 13 14 15 16 15 17 20 20 18 18
5 6 7 9 10 9 19 29 29 27 24 22 21 17 16 16 16 15 15 15 15 13 10 13 14 15 18 17 19 18 17 16 16
4 7 8 9 7 11 22 28 28 26 24 25 23 23 20 19 18 17 18 18 16 12 12 14 17 17 18 20 22 21 19 18 23
2 4 5 8 10 15 23 27 29 26 25 24 22 23 23 21 19 19 19 19 16 14 15 15 16 17 21 21 20 17 15 12 15
2 3 4 6 7 12 25 27 28 26 25 25 26 26 24 22 21 20 20 19 16 14 14 17 19 20 19 14 12 22 21 15 16
4 4 4 5 8 13 23 24 28 25 24 21 25 22 21 22 22 20 19 16 13 13 18 19 16 18 19 19 19 23 14 14 15
8 6 8 11 10 17 19 21 21 23 21 23 17 17 17 17 20 20 17 16 11 15 13 16 18 16 18 22 16 17 13 16 12
10 9 11 13 15 16 19 22 15 11 6 3 3 5 10 14 12 12 13 11 8 13 16 21 13 12 16 14 6 13 6 12 16
10 11 16 20 17 16 14 15 13 9 4 1 4 7 10 10 10 8 13 16 11 16 13 3 4 7 6 9 9 1 10 13 12
4 4 25 27 27 27 29 27 31 26 18 13 9 7 6 10 12 15 20 1 5 2 2 3 3 4 7 7 8 8 14 15 16
13 8 20 24 19 20 16 11 4 7 15 9 9 8 10 12 11 14 8 10 8 7 3 4 4 6 6 5 8 11 11 11 12
15 16 19 17 13 5 2 6 3 3 3 3 7 8 9 8 8 9 3 3 3 4 1 2 3 4 7 10 9 10 11 10 10
Wind_Direction
195 189 183 179 178 165 161 160 165 167 171 175 176 181 174 167 188 244 231 328 166 323 306 314 315 325 308 314 307 302 311 319 317
190 192 185 178 173 159 162 167 168 166 173 184 180 180 176 185 198 214 253 311 298 281 304 313 355 330 312 307 306 303 298 300 313
232 192 191 183 177 163 165 171 170 166 177 190 186 182 182 201 198 205 219 231 257 277 291 293 294 295 295 305 307 302 299 296 290
202 256 202 180 176 161 166 172 173 170 178 191 190 189 185 189 195 210 209 227 243 260 275 282 284 286 288 291 296 294 294 293 288
139 318 293 169 176 163 166 173 174 175 182 190 195 190 188 186 197 204 218 228 245 262 276 279 281 280 284 290 293 292 296 292 293
164 161 183 168 189 180 171 177 181 180 186 193 192 192 181 186 197 201 215 229 246 260 269 272 275 284 290 293 293 292 286 273 285
187 187 196 185 189 195 179 180 180 183 185 198 194 186 189 187 192 202 216 231 243 253 266 274 284 293 292 292 287 283 279 277 271
264 238 209 195 192 198 180 177 177 179 183 201 192 184 174 179 187 200 210 227 238 250 265 275 283 288 288 290 292 291 304 287 284
287 236 250 254 196 195 174 173 176 169 180 188 188 175 182 191 198 199 209 225 236 242 258 274 287 295 293 294 295 298 309 310 303
285 298 285 276 208 180 170 166 167 171 177 182 191 196 198 196 203 205 214 224 232 236 260 279 283 292 293 293 289 291 291 297 298
293 281 278 282 207 191 162 163 169 169 173 183 191 195 202 204 205 210 216 223 230 236 242 259 273 278 281 288 287 288 297 300 299
53 295 286 272 247 194 168 168 169 171 175 186 195 200 204 208 208 215 220 225 229 238 241 254 259 270 278 281 287 296 311 317 309
48 320 293 254 218 180 159 168 164 170 180 189 198 204 206 208 214 219 225 231 230 226 239 247 278 276 281 291 307 298 314 306 291
165 213 202 210 202 166 152 166 165 173 187 201 207 204 206 211 216 219 226 228 225 241 246 282 279 292 297 294 294 293 333 309 293
175 197 178 178 162 140 154 173 174 181 190 212 212 213 216 221 221 220 223 227 226 253 266 264 264 271 269 283 299 304 326 333 294
181 182 180 188 165 158 170 181 189 162 149 180 235 233 222 231 230 214 221 242 213 228 241 250 260 257 271 291 321 334 21 349 308
199 188 185 182 170 155 161 152 126 122 110 183 250 249 248 240 217 234 244 246 244 249 268 137 238 295 342 351 330 117 341 327 314
112 17 86 62 69 77 56 27 33 48 22 5 333 294 255 241 237 236 238 291 296 91 142 88 41 33 1 9 345 346 340 336 336
90 57 81 75 73 86 89 92 266 195 242 222 240 255 227 237 253 283 221 157 132 99 72 350 350 17 18 333 332 330 334 339 334
92 91 96 114 143 158 148 194 179 146 163 200 231 246 283 296 268 301 121 81 62 119 47 329 5 53 44 39 24 10 358 348 329